Terug naar catalogus

SL-12 DEB

LostHEO
NORAD 43380·DEBRIS·🇷🇺 Russia

Gelanceerd Oct 26, 2007 vanaf Baikonur Cosmodrome

Loading…

Volgende Passages (komende 24 uur)

TLE

VerouderdSource: Space-Track

Epoch: Jun 14, 2018, 14:27 UTC

1 43380U 07052AG  18165.60216509  .00000101  00000-0  00000+0 0  9993
2 43380  64.1164 240.4231 5820416  24.0557 354.4036  4.27262316 51472

Volg SL-12 DEB in realtime met AllMySat

Download on the App Store